Temperature
12 12 12 12 12 12 12 12 12 11 11 11 11 11 11 11 11 11 11 11 11 11 11 11 11 11 11 11 11 10 10 10 10 10 10 9 9 10 10 10 10 10 10
11 11 12 12 12 12 12 11 11 11 11 11 11 11 11 11 11 11 11 11 11 11 11 11 11 11 11 10 10 10 10 10 10 10 9 9 9 9 9 9 9 10 10
10 11 11 11 11 11 11 11 11 11 11 11 11 11 11 10 10 11 11 11 11 11 11 11 11 10 10 10 10 10 10 10 10 10 10 9 9 8 9 9 9 9 9
10 10 10 11 11 11 11 11 11 11 11 11 11 11 11 11 11 11 11 10 10 10 10 10 10 10 10 10 10 10 10 10 10 9 9 10 9 9 9 8 9 9 9
9 9 9 10 10 10 10 10 10 11 11 10 10 10 10 11 10 10 10 10 10 10 10 10 10 10 10 10 10 9 9 9 9 9 9 9 9 9 9 8 8 8 9
8 9 9 9 10 10 10 10 10 10 10 10 10 10 10 10 10 10 10 10 10 10 9 9 9 9 9 9 9 9 9 9 9 9 9 9 9 9 9 9 8 8 8
7 8 8 9 9 9 9 9 9 9 9 9 10 10 10 10 10 10 10 9 9 9 9 9 9 9 9 9 9 9 9 9 9 9 9 9 9 9 9 9 8 8 8
7 7 7 8 8 9 9 9 9 9 9 9 9 9 9 9 9 9 9 9 9 9 9 9 9 9 9 9 9 9 9 9 9 9 9 8 8 8 8 8 8 8 7
6 6 7 7 8 8 8 8 8 8 8 9 9 8 8 9 9 9 9 9 9 9 9 8 9 9 9 9 9 9 8 8 8 8 8 8 8 8 8 8 8 8 7
5 5 6 6 7 7 7 7 8 8 8 8 8 8 8 8 8 8 8 8 8 8 8 8 8 8 8 8 8 8 8 8 8 8 8 8 8 7 7 7 7 7 7
4 4 5 5 6 6 7 7 7 7 7 7 7 8 8 8 8 8 8 8 8 8 8 8 8 8 8 8 8 8 8 7 7 7 7 7 7 7 7 7 7 6 6
3 3 4 4 5 5 5 6 6 6 6 7 7 7 7 7 7 7 7 7 7 7 7 7 7 7 7 7 7 7 7 7 7 7 7 7 6 6 7 6 6 6 6
2 3 3 3 4 4 4 5 5 6 6 6 6 6 6 6 6 7 7 6 7 7 7 7 7 7 7 7 7 7 7 7 6 6 6 6 6 6 6 6 6 6 5
2 2 2 2 3 3 3 4 4 5 5 5 5 6 6 6 6 6 6 6 6 6 6 6 6 6 6 6 6 6 6 6 6 6 6 6 6 6 5 5 5 5 5
1 1 1 1 2 2 3 3 4 4 4 5 5 5 5 5 5 5 6 6 5 5 6 6 6 6 6 6 6 6 6 6 5 5 5 5 5 5 5 5 5 5 4
0 0 1 1 1 2 2 3 3 4 4 4 4 4 4 4 5 5 5 5 5 5 5 5 5 5 5 5 5 5 5 5 5 5 5 5 5 4 4 4 4 4 4
-0 -0 0 0 1 1 2 2 3 3 3 4 4 4 4 4 4 4 4 4 4 4 5 4 4 4 5 5 5 5 5 5 4 4 4 4 4 4 4 4 4 3 3
-1 -1 -0 0 0 1 1 1 2 2 3 3 3 3 3 3 3 3 3 4 4 4 4 4 4 4 4 4 4 4 4 4 4 4 4 4 4 3 3 3 3 3 3
-1 -1 -0 -0 -0 0 0 1 1 1 2 2 2 3 3 3 3 3 3 3 3 3 3 3 3 3 3 3 3 3 3 3 3 3 3 3 3 3 3 3 3 3 2
-1 -1 -1 -1 -1 -0 -0 0 0 1 1 1 1 2 2 2 2 2 2 2 2 2 3 3 3 3 3 3 3 3 3 3 3 3 3 2 2 2 2 2 2 2 2
-2 -1 -1 -1 -1 -1 -1 -0 -0 -0 0 1 1 1 1 1 1 1 1 1 2 2 2 2 2 2 2 2 2 2 2 2 2 2 2 2 2 2 2 2 2 2 2
-2 -2 -2 -2 -2 -2 -1 -1 -1 -1 -0 -0 0 0 0 1 1 1 1 1 1 1 1 1 1 1 1 1 1 1 2 2 2 2 1 1 1 1 1 1 1 1 1
-3 -3 -3 -2 -2 -2 -2 -2 -1 -1 -1 -1 -0 -0 -0 0 0 0 0 0 0 0 0 -0 0 0 0 0 0 1 1 1 1 1 1 1 1 1 0 0 0 0 0
-3 -3 -3 -3 -3 -3 -3 -2 -2 -2 -2 -1 -1 -1 -1 -0 -0 -1 -1 -0 -1 -1 -1 -1 -1 -1 -0 -0 -0 -0 -0 -0 -0 -0 -0 -0 -0 -0 -0 -0 -0 -0 -0
-4 -4 -4 -4 -4 -3 -3 -3 -3 -2 -2 -2 -2 -1 -1 -1 -1 -1 -1 -1 -1 -1 -1 -1 -1 -1 -1 -1 -1 -1 -1 -1 -1 -1 -1 -1 -1 -1 -1 -1 -1 -1 -1
-5 -5 -4 -4 -4 -4 -4 -4 -3 -3 -3 -3 -2 -2 -2 -2 -2 -2 -2 -2 -2 -2 -2 -2 -2 -2 -2 -1 -1 -1 -1 -1 -1 -1 -1 -1 -1 -2 -1 -1 -1 -1 -2
Wind_Speed
6 6 6 7 7 7 8 9 9 8 7 6 6 6 6 5 5 6 9 11 11 11 10 7 7 7 6 6 6 5 5 4 5 4 4 4 4 3 2 3 4 4 4
3 4 6 7 8 8 8 8 8 8 8 6 6 5 5 5 5 5 7 10 11 11 10 8 7 7 6 6 6 6 4 3 4 4 4 1 1 2 2 1 2 2 3
7 6 6 6 7 8 8 8 8 8 8 7 5 4 4 3 3 4 5 6 9 10 9 9 8 7 7 7 7 7 6 5 3 3 4 4 3 1 1 1 1 1 2
4 4 5 5 5 6 6 7 8 8 7 8 8 9 7 6 5 5 5 6 8 9 9 9 9 8 7 7 7 6 5 7 5 2 1 2 4 3 1 1 1 0 1
4 4 4 5 4 5 5 6 7 7 7 7 8 9 6 4 3 4 6 6 5 7 8 9 8 8 7 7 7 6 5 5 5 4 2 2 2 2 3 2 1 1 1
3 3 2 3 3 3 4 4 6 6 7 7 7 8 8 6 6 6 6 6 4 4 6 7 7 7 7 7 7 7 7 6 5 4 4 4 3 3 3 3 2 2 1
4 3 2 3 3 3 3 4 5 5 5 7 7 7 8 8 9 7 7 6 5 4 5 5 6 6 6 7 7 6 7 7 7 6 4 4 3 3 3 4 2 1 1
3 3 3 3 3 3 3 4 5 4 4 5 6 6 7 6 6 6 6 6 6 5 5 6 6 6 6 6 6 5 6 6 6 6 5 3 3 3 4 4 4 2 1
4 3 2 2 2 2 2 3 4 4 4 4 4 5 6 6 6 6 5 5 4 4 6 6 6 5 5 5 6 4 5 5 5 5 5 4 3 3 3 4 4 5 3
5 4 3 3 2 2 2 2 3 4 3 4 4 4 5 5 6 6 6 5 5 5 6 6 5 5 5 5 5 4 4 5 4 4 5 4 3 3 3 3 2 3 4
4 4 4 4 3 3 2 2 2 2 2 3 3 4 4 5 5 6 6 6 5 5 6 7 6 6 5 5 5 5 5 5 5 4 5 5 4 4 3 3 2 2 2
4 5 5 5 5 4 3 2 2 1 1 2 2 3 4 5 5 5 5 5 6 5 6 6 6 6 6 6 6 6 6 6 6 5 5 5 4 4 3 3 4 3 3
6 5 5 5 5 4 4 3 2 1 1 1 2 2 3 4 5 5 5 5 6 6 6 6 6 6 6 6 6 6 6 6 6 6 6 5 5 5 4 4 4 3 3
5 5 5 5 5 4 4 4 3 2 1 1 2 2 3 4 5 5 5 5 6 6 6 6 6 6 6 6 6 6 5 5 5 5 5 6 6 7 6 5 5 4 4
6 5 5 4 5 4 4 4 4 3 1 1 2 2 2 3 4 4 5 5 5 5 5 5 5 5 5 5 6 5 5 5 4 4 4 4 5 6 6 5 5 5 4
5 5 5 4 4 4 4 4 4 4 2 1 2 1 2 3 3 4 4 5 5 5 5 5 5 5 4 6 7 6 5 5 5 4 3 3 4 5 6 7 7 7 6
5 4 4 4 4 4 3 3 3 3 3 2 2 2 3 3 2 3 4 4 4 4 5 5 5 4 4 6 7 7 5 5 4 4 4 3 3 4 4 5 5 5 6
5 4 4 4 4 3 4 4 3 3 2 2 2 2 3 3 3 3 4 4 4 4 4 4 4 4 3 5 5 6 4 4 3 4 4 4 4 4 5 4 3 3 4
5 4 3 3 3 3 3 3 4 4 3 2 1 1 2 3 3 3 3 3 3 3 3 3 4 4 3 4 4 4 3 3 2 2 3 4 4 5 5 4 3 3 2
6 4 4 4 3 3 3 3 3 3 2 2 2 1 1 3 3 3 2 2 3 3 3 3 3 3 2 4 4 5 3 3 2 1 2 4 4 5 5 4 4 4 3
5 4 3 3 3 3 2 2 2 3 2 2 2 1 1 2 2 2 2 3 3 3 3 3 2 2 2 3 4 4 3 3 2 2 2 2 4 4 4 4 4 4 3
5 4 3 3 3 3 2 2 2 3 2 2 2 2 2 2 2 3 3 3 4 4 3 3 2 1 1 2 3 3 3 3 3 3 2 2 3 4 4 3 3 3 2
5 4 3 3 4 3 2 2 2 2 2 2 2 2 2 2 2 3 3 3 3 3 2 2 2 0 0 1 1 2 2 2 1 2 3 3 3 2 2 2 2 2 2
4 4 3 3 4 4 4 2 2 2 2 2 2 2 2 2 2 2 2 2 2 3 2 2 2 1 0 0 0 1 1 1 1 1 2 3 2 2 2 1 1 1 2
4 3 2 3 3 4 4 3 3 2 2 2 1 1 1 2 2 2 2 1 1 2 3 2 3 2 2 2 2 2 1 2 2 2 2 1 1 1 1 1 1 1 1
3 3 3 3 4 4 4 4 3 2 1 1 1 1 1 1 2 3 3 4 3 3 2 1 1 1 2 2 2 2 2 2 4 3 2 1 1 1 2 1 1 1 1
Wind_Direction
215 192 182 176 167 165 167 170 169 170 165 166 171 173 178 173 169 165 167 167 167 165 157 154 156 154 159 161 152 142 136 126 121 104 80 42 41 60 74 105 112 112 122
204 185 177 175 172 171 172 173 173 170 172 175 175 175 170 173 173 166 165 169 167 167 165 162 165 161 160 160 158 148 144 151 149 132 126 110 8 6 36 59 112 116 111
193 186 179 179 174 174 175 177 175 172 172 166 157 148 137 139 162 174 174 170 168 169 170 171 166 166 168 174 174 167 159 168 179 157 146 152 192 237 347 22 63 105 113
172 168 165 170 177 184 175 170 171 169 170 167 167 166 170 176 186 182 177 173 171 171 173 173 170 169 171 177 182 177 170 166 175 173 143 144 144 154 170 333 347 46 129
161 159 161 162 161 163 163 165 163 165 166 169 173 172 173 174 163 165 170 176 176 176 173 173 173 172 174 178 179 177 171 172 173 169 153 125 107 124 149 191 235 307 276
145 137 131 130 129 130 137 144 157 167 168 169 172 174 169 163 162 168 175 178 179 179 176 173 176 177 176 180 183 181 179 180 173 170 164 162 159 168 159 173 193 207 265
122 112 112 122 126 128 142 146 151 167 173 172 175 177 173 171 173 175 177 175 177 183 185 175 178 178 180 181 177 176 182 181 179 180 180 179 174 159 154 153 164 189 255
104 120 136 134 138 141 148 154 163 168 173 175 180 179 175 177 180 178 176 179 183 184 176 173 176 176 174 178 174 174 179 176 179 182 176 174 175 163 162 159 155 157 253
68 74 96 124 129 132 144 164 168 169 179 176 173 173 176 175 175 173 169 174 174 168 167 170 170 171 171 173 169 174 174 171 178 180 178 179 179 166 162 155 163 167 196
46 46 49 57 83 121 129 131 160 177 178 176 179 180 183 180 173 167 171 172 170 166 165 169 168 169 169 168 163 162 162 165 175 175 173 185 180 166 159 161 167 171 180
46 37 31 30 46 59 82 96 112 147 158 170 181 178 179 173 169 172 176 172 166 166 169 173 171 172 172 168 169 168 163 170 176 179 180 193 184 175 171 163 163 170 168
50 41 35 33 35 35 40 59 78 109 164 175 175 175 171 166 169 174 172 165 164 166 169 167 168 171 171 170 174 176 174 177 182 186 183 193 182 179 179 174 180 189 184
43 36 35 31 25 22 22 21 27 35 76 140 151 151 162 166 172 174 166 161 162 164 163 165 171 172 173 174 180 180 180 183 185 186 187 190 179 187 187 186 190 191 182
40 33 27 20 15 14 14 14 7 4 34 97 141 155 168 174 172 167 159 158 160 163 166 169 171 171 172 176 178 175 176 180 181 183 187 189 190 194 191 193 193 182 173
29 21 15 7 5 7 9 10 8 7 24 102 131 160 159 155 152 152 151 150 151 156 160 160 161 163 170 177 173 174 176 175 174 176 184 190 192 193 191 192 188 180 180
17 11 6 1 359 358 360 5 4 4 20 96 128 134 131 127 134 142 142 144 150 152 149 154 161 168 180 177 174 172 174 174 178 185 187 188 188 188 189 191 189 187 186
360 355 350 342 341 346 352 355 354 3 23 71 98 117 119 118 127 134 136 144 152 148 147 154 158 167 177 174 175 176 173 177 187 189 187 189 188 186 187 186 186 195 198
345 341 340 338 341 352 359 358 4 11 30 60 79 99 120 125 120 125 136 144 145 148 152 156 160 164 169 164 168 169 168 173 188 193 190 187 186 187 179 174 184 204 215
332 328 331 337 349 0 4 18 19 18 30 43 63 100 134 133 132 139 147 143 138 136 137 147 146 152 155 155 161 159 156 167 187 191 182 182 182 187 182 177 188 211 236
341 344 350 357 2 359 13 35 24 14 12 16 13 34 140 146 150 156 149 131 131 134 135 129 136 152 159 164 163 160 154 160 169 167 180 184 186 189 185 186 190 210 231
343 353 359 0 348 352 20 30 19 349 341 359 17 37 79 128 143 136 127 130 128 126 127 125 120 138 151 162 166 163 164 174 174 179 197 204 189 193 195 200 207 216 210
351 356 360 357 353 0 26 27 356 340 353 20 37 51 61 89 114 122 119 123 129 128 128 121 96 74 114 149 165 169 177 181 185 197 203 193 183 192 198 203 201 197 183
344 349 356 360 1 3 19 23 342 353 16 38 43 54 56 66 93 121 130 128 131 139 147 145 146 126 36 125 146 171 180 183 197 199 185 178 178 186 192 189 187 178 183
345 350 3 11 1 360 8 8 354 8 44 51 42 50 72 70 71 88 122 141 151 153 161 168 172 183 241 251 223 201 159 141 126 119 135 132 134 129 124 126 150 160 184
338 349 0 6 356 357 6 7 9 23 46 54 52 58 74 103 90 73 71 111 155 177 177 185 184 187 212 226 207 193 191 183 164 126 104 104 116 125 115 111 144 167 158
341 356 3 8 360 1 6 7 8 23 61 60 53 70 93 97 100 92 61 47 63 64 70 122 177 203 199 184 182 181 189 175 155 133 148 168 176 192 197 199 217 217 205
Height
1468 1472 1475 1478 1480 1483 1486 1489 1492 1495 1498 1500 1503 1505 1508 1511 1513 1516 1518 1521 1523 1525 1528 1530 1532 1535 1537 1539 1541 1544 1546 1548 1550 1552 1554 1556 1557 1558 1559 1560 1561 1562 1563
1465 1468 1471 1474 1476 1479 1482 1485 1488 1491 1494 1497 1500 1503 1505 1508 1510 1513 1515 1518 1520 1523 1525 1527 1529 1532 1534 1537 1539 1541 1543 1545 1548 1549 1551 1554 1557 1556 1557 1558 1559 1560 1561
1461 1463 1467 1470 1473 1475 1478 1481 1484 1487 1491 1494 1497 1500 1503 1505 1507 1509 1511 1514 1516 1519 1522 1524 1527 1529 1531 1533 1535 1538 1540 1542 1545 1547 1549 1551 1551 1553 1555 1556 1557 1558 1559
1458 1460 1463 1466 1469 1472 1475 1479 1481 1484 1487 1490 1493 1495 1497 1499 1502 1505 1508 1511 1514 1516 1518 1521 1523 1525 1528 1530 1533 1535 1538 1540 1541 1544 1546 1548 1548 1550 1551 1554 1555 1555 1556
1456 1458 1461 1463 1466 1469 1472 1476 1478 1481 1484 1487 1489 1491 1494 1497 1500 1502 1504 1507 1510 1512 1515 1518 1520 1522 1525 1527 1530 1532 1535 1537 1538 1540 1542 1544 1546 1547 1548 1549 1552 1553 1554
1454 1457 1459 1461 1464 1467 1470 1473 1475 1478 1481 1483 1486 1488 1490 1493 1496 1498 1501 1503 1506 1509 1511 1514 1516 1519 1521 1524 1526 1529 1531 1533 1535 1537 1539 1541 1542 1544 1545 1546 1548 1549 1551
1453 1455 1457 1459 1462 1464 1467 1470 1472 1475 1477 1480 1482 1485 1487 1490 1492 1495 1497 1500 1502 1505 1507 1510 1513 1515 1518 1521 1523 1525 1527 1530 1532 1534 1535 1538 1539 1541 1543 1544 1545 1546 1548
1452 1454 1456 1458 1460 1463 1465 1467 1470 1472 1475 1477 1479 1482 1484 1487 1489 1492 1494 1496 1499 1502 1504 1507 1510 1512 1515 1517 1519 1521 1524 1526 1528 1530 1532 1534 1536 1538 1539 1541 1542 1543 1544
1453 1454 1456 1457 1459 1461 1463 1465 1467 1469 1472 1474 1476 1479 1481 1483 1485 1488 1491 1494 1496 1499 1501 1504 1506 1509 1512 1514 1516 1517 1520 1522 1525 1526 1528 1530 1532 1534 1536 1537 1539 1540 1540
1453 1454 1455 1456 1458 1460 1462 1464 1465 1467 1469 1471 1473 1475 1478 1480 1482 1485 1487 1490 1493 1495 1498 1500 1503 1506 1508 1510 1513 1514 1516 1519 1520 1523 1524 1526 1528 1530 1531 1533 1535 1536 1537
1454 1454 1455 1456 1457 1459 1460 1462 1463 1465 1467 1468 1470 1472 1474 1477 1479 1481 1484 1487 1489 1492 1494 1497 1499 1502 1504 1507 1509 1510 1512 1514 1517 1519 1521 1522 1524 1525 1527 1529 1530 1531 1532
1455 1455 1456 1456 1457 1458 1459 1460 1462 1463 1464 1466 1468 1469 1471 1474 1476 1478 1481 1484 1486 1488 1491 1493 1496 1498 1501 1503 1505 1507 1509 1511 1512 1514 1516 1518 1519 1521 1523 1524 1526 1527 1528
1456 1456 1456 1456 1457 1458 1458 1459 1460 1461 1463 1464 1465 1466 1468 1470 1473 1475 1478 1480 1483 1485 1488 1490 1492 1495 1497 1500 1502 1504 1505 1507 1509 1510 1512 1514 1515 1516 1518 1520 1522 1523 1524
1457 1456 1456 1457 1457 1457 1458 1458 1459 1460 1461 1462 1463 1464 1465 1467 1470 1472 1474 1477 1480 1482 1485 1487 1489 1492 1494 1496 1499 1500 1502 1503 1505 1507 1508 1510 1511 1513 1515 1516 1518 1519 1520
1458 1457 1457 1457 1457 1457 1457 1457 1458 1458 1459 1460 1461 1462 1463 1465 1467 1469 1472 1474 1477 1479 1482 1484 1486 1489 1491 1493 1495 1497 1498 1500 1501 1503 1505 1507 1508 1510 1511 1512 1513 1515 1515
1459 1458 1458 1458 1457 1457 1456 1456 1456 1457 1458 1458 1459 1460 1462 1463 1465 1467 1469 1472 1474 1476 1479 1481 1483 1485 1487 1490 1492 1494 1495 1497 1498 1500 1502 1503 1505 1506 1507 1508 1509 1511 1511
1459 1459 1458 1457 1457 1456 1456 1455 1455 1455 1456 1457 1458 1459 1460 1462 1463 1465 1467 1469 1471 1473 1475 1478 1480 1482 1485 1487 1489 1490 1492 1493 1495 1497 1498 1499 1501 1502 1503 1504 1505 1506 1507
1460 1459 1458 1457 1457 1456 1455 1454 1454 1454 1455 1455 1456 1458 1459 1460 1462 1463 1465 1467 1469 1471 1473 1475 1478 1480 1482 1484 1486 1487 1489 1490 1492 1493 1494 1496 1497 1498 1499 1500 1501 1502 1503
1460 1459 1458 1457 1455 1455 1454 1453 1453 1453 1454 1454 1455 1456 1458 1459 1460 1462 1463 1465 1467 1469 1471 1473 1475 1477 1479 1481 1483 1484 1485 1487 1488 1490 1491 1492 1493 1495 1496 1496 1497 1498 1499
1459 1457 1456 1455 1454 1454 1453 1452 1452 1452 1453 1453 1454 1455 1456 1457 1458 1460 1462 1463 1465 1467 1469 1470 1472 1474 1475 1478 1479 1481 1482 1483 1485 1486 1487 1489 1490 1491 1492 1492 1493 1493 1494
1458 1457 1455 1454 1453 1453 1452 1451 1451 1451 1452 1452 1453 1454 1454 1456 1457 1458 1460 1461 1463 1464 1466 1467 1469 1471 1473 1475 1476 1478 1479 1480 1481 1482 1483 1485 1486 1487 1488 1489 1489 1489 1490
1457 1456 1454 1453 1452 1451 1450 1449 1450 1450 1451 1451 1451 1452 1453 1454 1456 1457 1458 1459 1461 1462 1463 1465 1466 1468 1470 1472 1473 1475 1476 1477 1478 1478 1480 1481 1482 1483 1484 1485 1485 1486 1486
1457 1455 1454 1452 1451 1450 1449 1448 1448 1449 1449 1449 1450 1451 1452 1453 1454 1455 1456 1458 1459 1460 1461 1463 1464 1465 1467 1469 1471 1472 1473 1474 1475 1475 1476 1477 1478 1479 1480 1480 1481 1481 1481
1456 1454 1453 1451 1450 1449 1448 1448 1447 1447 1447 1448 1448 1449 1450 1451 1452 1454 1455 1456 1457 1458 1460 1461 1462 1463 1465 1466 1468 1469 1470 1471 1471 1472 1473 1474 1474 1475 1475 1476 1476 1476 1477
1455 1453 1452 1450 1449 1448 1447 1447 1446 1446 1446 1446 1447 1448 1449 1450 1451 1452 1453 1455 1456 1457 1458 1459 1460 1461 1462 1463 1465 1465 1466 1467 1468 1468 1469 1470 1470 1471 1471 1472 1472 1472 1472
1454 1453 1451 1449 1448 1447 1446 1446 1445 1445 1445 1445 1445 1446 1447 1448 1449 1450 1452 1453 1454 1455 1457 1458 1459 1459 1460 1461 1461 1463 1463 1464 1465 1465 1465 1466 1466 1467 1467 1468 1468 1468 1468